Location: Helsinki
(60.1699°N, 24.9384°E)
Time: 23:02:24
(UTC+02:00)

Transit 2A - All Passes

Search period start: 28 October 2020 00:00
Search period end: 07 November 2020 00:00
Orbit: 593 x 966 km, 66.7° (Epoch: 27 October)

Date Brightness Start Highest point End Pass type
(mag) Time Alt. Az. Time Alt. Az. Time Alt. Az.
28 Oct - 00:18:50 10° SE 00:22:29 16° ESE 00:26:05 10° ENE visible
28 Oct - 01:58:29 10° SSW 02:04:37 50° SE 02:10:31 10° NE visible
28 Oct - 03:41:29 10° WSW 03:47:51 71° NNW 03:53:53 10° NE visible
28 Oct - 05:25:52 10° W 05:31:54 47° N 05:37:31 10° ENE visible
28 Oct - 07:10:07 10° WNW 07:16:08 53° NNE 07:21:37 10° E daylight
28 Oct - 08:53:47 10° NW 08:59:47 78° SW 09:05:10 10° SE daylight
28 Oct - 10:37:38 10° WNW 10:42:15 25° WSW 10:46:30 10° SSW daylight
28 Oct - 23:46:22 10° ESE 23:48:42 12° E 23:50:59 10° E visible
29 Oct - 01:24:40 10° S 01:30:34 41° ESE 01:36:16 10° NE visible
29 Oct - 03:07:12 10° WSW 03:13:37 81° NW 03:19:41 10° NE visible
29 Oct - 04:51:27 10° W 04:57:33 48° NNW 05:03:13 10° ENE visible
29 Oct - 06:35:49 10° WNW 06:41:48 49° NNE 06:47:16 10° E visible
29 Oct - 08:19:34 10° NW 08:25:36 89° NNE 08:31:02 10° SE daylight
29 Oct - 10:03:16 10° WNW 10:08:20 32° WSW 10:12:57 10° S daylight
30 Oct - 00:50:58 10° S 00:56:34 33° ESE 01:01:59 10° ENE visible
30 Oct - 02:33:00 10° SW 02:39:24 88° SE 02:45:29 10° NE visible
30 Oct - 04:17:02 10° W 04:23:11 51° NNW 04:28:56 10° ENE visible
30 Oct - 06:01:29 10° WNW 06:07:26 47° N 06:12:54 10° E visible
30 Oct - 07:45:20 10° NW 07:51:24 77° NNE 07:56:50 10° ESE daylight
30 Oct - 09:28:57 10° NW 09:34:22 40° WSW 09:39:15 10° S daylight
30 Oct - 11:15:25 10° W 11:15:59 10° W 11:16:32 10° WSW daylight
31 Oct - 00:17:26 10° SSE 00:22:36 27° ESE 00:27:38 10° ENE visible
31 Oct - 01:58:51 10° SW 02:05:13 75° SE 02:11:17 10° NE visible
31 Oct - 03:42:38 10° W 03:48:52 56° NNW 03:54:41 10° ENE visible
31 Oct - 05:27:07 10° WNW 05:33:04 46° N 05:38:33 10° ENE visible
31 Oct - 07:11:06 10° NW 07:17:08 67° NNE 07:22:35 10° ESE daylight
31 Oct - 08:54:41 10° NW 09:00:20 50° SW 09:05:25 10° SSE daylight
31 Oct - 10:39:28 10° WNW 10:42:13 14° WSW 10:44:51 10° SW daylight
31 Oct - 23:44:05 10° SSE 23:48:41 21° ESE 23:53:11 10° ENE visible
01 Nov - 01:24:48 10° SSW 01:31:06 63° SE 01:37:05 10° NE visible
01 Nov - 03:08:16 10° WSW 03:14:34 62° NNW 03:20:27 10° NE visible
01 Nov - 04:52:44 10° WNW 04:58:42 45° N 05:04:12 10° ENE visible
01 Nov - 06:36:51 10° NW 06:42:51 59° NNE 06:48:17 10° ESE visible
01 Nov - 08:20:27 10° NW 08:26:16 62° SW 08:31:29 10° SSE daylight
01 Nov - 10:04:40 10° WNW 10:08:24 18° WSW 10:11:55 10° SSW daylight
01 Nov - 23:11:00 10° SE 23:14:49 17° ESE 23:18:34 10° ENE visible
02 Nov - 00:50:51 10° SSW 00:56:59 52° SE 01:02:53 10° NE visible
02 Nov - 02:33:56 10° WSW 02:40:16 69° NNW 02:46:14 10° NE visible
02 Nov - 04:18:20 10° W 04:24:20 46° N 04:29:53 10° ENE visible
02 Nov - 06:02:34 10° WNW 06:08:33 54° NNE 06:13:58 10° E visible
02 Nov - 07:46:13 10° NW 07:52:09 75° SW 07:57:27 10° SE daylight
02 Nov - 09:30:08 10° WNW 09:34:33 23° WSW 09:38:38 10° SSW daylight
02 Nov - 22:38:22 10° SE 22:41:00 13° ESE 22:43:36 10° ENE night (unlit)
03 Nov - 00:17:00 10° SSW 00:22:56 43° ESE 00:28:38 10° NE visible
03 Nov - 01:59:39 10° WSW 02:06:02 79° NNW 02:12:02 10° NE visible
03 Nov - 03:43:55 10° W 03:49:58 48° N 03:55:34 10° ENE visible
03 Nov - 05:28:16 10° WNW 05:34:13 50° NNE 05:39:37 10° E visible
03 Nov - 07:12:00 10° NW 07:17:59 89° SW 07:23:20 10° SE daylight
03 Nov - 08:55:44 10° WNW 09:00:38 30° WSW 09:05:08 10° S daylight
03 Nov - 23:43:16 10° S 23:48:55 35° ESE 23:54:21 10° ENE visible
04 Nov - 01:25:25 10° SW 01:31:49 90° NE 01:37:50 10° NE visible
04 Nov - 03:09:30 10° W 03:15:37 51° NNW 03:21:17 10° ENE visible
04 Nov - 04:53:56 10° WNW 04:59:52 47° N 05:05:15 10° E visible
04 Nov - 06:37:46 10° NW 06:43:46 79° NNE 06:49:09 10° ESE visible
04 Nov - 08:21:24 10° NW 08:26:41 37° WSW 08:31:27 10° S daylight
04 Nov - 23:09:42 10° S 23:14:56 28° ESE 23:20:02 10° ENE visible
05 Nov - 00:51:16 10° SW 00:57:37 78° SE 01:03:38 10° NE visible
05 Nov - 02:35:06 10° W 02:41:17 55° NNW 02:47:02 10° ENE visible
05 Nov - 04:19:35 10° WNW 04:25:29 46° N 04:30:54 10° ENE visible
05 Nov - 06:03:32 10° NW 06:09:32 69° NNE 06:14:54 10° ESE visible
05 Nov - 07:47:08 10° NW 07:52:40 47° SW 07:57:39 10° SSE daylight
05 Nov - 09:32:08 10° WNW 09:34:29 13° WSW 09:36:45 10° SW daylight
05 Nov - 22:36:18 10° SSE 22:41:01 22° ESE 22:45:37 10° ENE night (unlit)
06 Nov - 00:17:11 10° SSW 00:23:28 65° SE 00:29:26 10° NE visible
06 Nov - 02:00:44 10° WSW 02:06:58 60° NNW 02:12:47 10° NE visible
06 Nov - 03:45:12 10° WNW 03:51:07 45° N 03:56:33 10° ENE visible
06 Nov - 05:29:17 10° NW 05:35:15 60° NNE 05:40:37 10° ESE visible
06 Nov - 07:12:52 10° NW 07:18:36 59° SW 07:23:44 10° SSE daylight
06 Nov - 08:57:12 10° WNW 09:00:41 17° WSW 09:03:58 10° SW daylight
06 Nov - 22:03:10 10° SE 22:07:09 18° ESE 22:11:02 10° ENE night (unlit)
06 Nov - 23:43:12 10° SSW 23:49:22 54° SE 23:55:14 10° NE visible
